TimeEST,TemperatureF,Dew PointF,Humidity,Sea Level PressureIn,VisibilityMPH,Wind Direction,Wind SpeedMPH,Gust SpeedMPH,PrecipitationIn,Events,Conditions,WindDirDegrees,DateUTC
12:10 AM,26.6,26.6,100,30.14,4.0,NW,9.2,-,N/A,,Overcast,310,2013-03-08 05:10:00
12:30 AM,26.6,26.6,100,30.13,2.5,WNW,6.9,-,N/A,,Overcast,300,2013-03-08 05:30:00
12:50 AM,26.6,26.6,100,30.13,1.8,WNW,9.2,-,N/A,,Overcast,300,2013-03-08 05:50:00
1:10 AM,26.6,26.6,100,30.13,0.5,NW,9.2,-,N/A,Fog,Light Freezing Fog,310,2013-03-08 06:10:00
1:30 AM,26.6,26.6,100,30.14,0.5,NW,6.9,-,N/A,Fog,Light Freezing Fog,310,2013-03-08 06:30:00
1:50 AM,24.8,24.8,100,30.14,7.0,NNW,6.9,17.3,N/A,,Overcast,330,2013-03-08 06:50:00
2:10 AM,24.8,24.8,100,30.14,10.0,NNW,6.9,-,N/A,,Overcast,330,2013-03-08 07:10:00
2:30 AM,24.8,24.8,100,30.14,10.0,NW,5.8,-,N/A,,Overcast,320,2013-03-08 07:30:00
2:50 AM,24.8,24.8,100,30.13,7.0,NW,5.8,-,N/A,,Overcast,320,2013-03-08 07:50:00
3:10 AM,24.8,24.8,100,30.14,7.0,NW,6.9,-,N/A,,Overcast,320,2013-03-08 08:10:00
3:30 AM,24.8,24.8,100,30.13,7.0,NNW,6.9,-,N/A,,Overcast,340,2013-03-08 08:30:00
3:50 AM,24.8,24.8,100,30.14,4.0,NW,6.9,16.1,N/A,,Overcast,320,2013-03-08 08:50:00
4:10 AM,24.8,24.8,100,30.14,7.0,NW,6.9,-,N/A,,Overcast,320,2013-03-08 09:10:00
4:30 AM,23.0,23.0,100,30.14,7.0,NW,9.2,-,N/A,,Overcast,310,2013-03-08 09:30:00
4:50 AM,23.0,23.0,100,30.14,7.0,NW,8.1,-,N/A,,Overcast,320,2013-03-08 09:50:00
5:10 AM,23.0,23.0,100,30.15,7.0,NNW,10.4,25.3,N/A,,Overcast,330,2013-03-08 10:10:00
5:30 AM,23.0,23.0,100,30.16,7.0,NW,10.4,20.7,N/A,,Overcast,320,2013-03-08 10:30:00
5:50 AM,23.0,23.0,100,30.16,7.0,NW,11.5,18.4,N/A,,Overcast,310,2013-03-08 10:50:00
6:10 AM,23.0,23.0,100,30.17,5.0,NNW,11.5,16.1,N/A,,Overcast,330,2013-03-08 11:10:00
6:30 AM,23.0,23.0,100,30.18,5.0,NW,10.4,-,N/A,,Overcast,310,2013-03-08 11:30:00
6:50 AM,23.0,23.0,100,30.18,7.0,NW,10.4,17.3,N/A,,Overcast,310,2013-03-08 11:50:00
7:10 AM,23.0,23.0,100,30.19,5.0,NW,8.1,16.1,N/A,,Overcast,320,2013-03-08 12:10:00
7:30 AM,23.0,23.0,100,30.19,5.0,NNW,9.2,17.3,N/A,,Overcast,330,2013-03-08 12:30:00
7:50 AM,23.0,23.0,100,30.20,7.0,NW,9.2,17.3,N/A,,Overcast,310,2013-03-08 12:50:00
8:10 AM,23.0,23.0,100,30.20,4.0,NW,12.7,20.7,N/A,,Overcast,310,2013-03-08 13:10:00
8:30 AM,23.0,23.0,100,30.20,3.0,NW,10.4,18.4,N/A,,Overcast,310,2013-03-08 13:30:00
8:50 AM,23.0,23.0,100,30.20,5.0,NW,10.4,19.6,N/A,,Overcast,320,2013-03-08 13:50:00
9:10 AM,23.0,23.0,100,30.21,5.0,NW,10.4,19.6,N/A,,Overcast,320,2013-03-08 14:10:00
9:30 AM,23.0,23.0,100,30.21,4.0,NNW,8.1,21.9,N/A,,Overcast,330,2013-03-08 14:30:00
9:50 AM,23.0,23.0,100,30.22,5.0,WNW,10.4,21.9,N/A,,Overcast,300,2013-03-08 14:50:00
10:10 AM,24.8,24.8,100,30.22,5.0,NW,9.2,24.2,N/A,,Overcast,320,2013-03-08 15:10:00
10:30 AM,24.8,24.8,100,30.22,7.0,NW,10.4,19.6,N/A,,Overcast,320,2013-03-08 15:30:00
10:50 AM,26.6,26.6,100,30.22,5.0,NNW,8.1,-,N/A,,Overcast,330,2013-03-08 15:50:00
11:10 AM,26.6,26.6,100,30.22,7.0,NW,8.1,20.7,N/A,,Overcast,320,2013-03-08 16:10:00
11:30 AM,26.6,26.6,100,30.22,7.0,NW,9.2,17.3,N/A,,Overcast,320,2013-03-08 16:30:00
11:50 AM,26.6,26.6,100,30.23,10.0,NW,8.1,19.6,N/A,,Overcast,320,2013-03-08 16:50:00
12:10 PM,26.6,26.6,100,30.23,10.0,NW,10.4,20.7,N/A,,Overcast,310,2013-03-08 17:10:00
12:30 PM,28.4,28.4,100,30.22,10.0,NW,8.1,16.1,N/A,,Overcast,320,2013-03-08 17:30:00
12:50 PM,28.4,26.6,93,30.22,10.0,NW,10.4,18.4,N/A,,Overcast,320,2013-03-08 17:50:00
1:10 PM,28.4,26.6,93,30.21,10.0,NW,9.2,18.4,N/A,,Overcast,320,2013-03-08 18:10:00
1:30 PM,28.4,26.6,93,30.22,10.0,NW,9.2,16.1,N/A,,Overcast,310,2013-03-08 18:30:00
1:50 PM,28.4,26.6,93,30.21,10.0,NW,10.4,16.1,N/A,,Overcast,310,2013-03-08 18:50:00
2:10 PM,26.6,26.6,100,30.22,10.0,NW,9.2,20.7,N/A,,Overcast,310,2013-03-08 19:10:00
2:30 PM,28.4,26.6,93,30.22,10.0,NW,10.4,17.3,N/A,,Overcast,310,2013-03-08 19:30:00
2:50 PM,28.4,26.6,93,30.22,10.0,NW,9.2,17.3,N/A,,Overcast,320,2013-03-08 19:50:00
3:10 PM,28.4,26.6,93,30.22,10.0,NW,12.7,23.0,N/A,,Overcast,310,2013-03-08 20:10:00
3:30 PM,28.4,26.6,93,30.23,10.0,NW,10.4,18.4,N/A,,Overcast,320,2013-03-08 20:30:00
3:50 PM,28.4,26.6,93,30.24,10.0,NW,8.1,19.6,N/A,,Overcast,310,2013-03-08 20:50:00
4:10 PM,28.4,26.6,93,30.25,10.0,NW,6.9,-,N/A,,Overcast,310,2013-03-08 21:10:00
4:30 PM,28.4,26.6,93,30.25,10.0,WNW,12.7,16.1,N/A,,Overcast,300,2013-03-08 21:30:00
4:50 PM,28.4,26.6,93,30.25,10.0,WNW,10.4,20.7,N/A,,Overcast,300,2013-03-08 21:50:00
5:10 PM,28.4,26.6,93,30.26,10.0,WNW,8.1,-,N/A,,Overcast,300,2013-03-08 22:10:00
5:30 PM,28.4,26.6,93,30.26,10.0,WNW,8.1,-,N/A,,Overcast,300,2013-03-08 22:30:00
5:50 PM,28.4,26.6,93,30.26,10.0,WNW,9.2,-,N/A,,Overcast,300,2013-03-08 22:50:00
6:10 PM,28.4,26.6,93,30.26,10.0,WNW,10.4,-,N/A,,Overcast,300,2013-03-08 23:10:00
6:30 PM,26.6,26.6,100,30.27,10.0,WNW,5.8,-,N/A,,Overcast,290,2013-03-08 23:30:00
6:50 PM,26.6,26.6,100,30.28,10.0,West,6.9,-,N/A,,Overcast,280,2013-03-08 23:50:00
7:10 PM,26.6,26.6,100,30.28,10.0,WNW,5.8,-,N/A,,Overcast,300,2013-03-09 00:10:00
7:30 PM,26.6,26.6,100,30.29,10.0,West,6.9,-,N/A,,Overcast,280,2013-03-09 00:30:00
7:50 PM,26.6,26.6,100,30.29,10.0,West,6.9,-,N/A,,Overcast,280,2013-03-09 00:50:00
8:10 PM,26.6,26.6,100,30.30,10.0,WNW,6.9,-,N/A,,Overcast,290,2013-03-09 01:10:00
8:30 PM,26.6,26.6,100,30.30,10.0,West,5.8,-,N/A,,Overcast,280,2013-03-09 01:30:00
8:50 PM,26.6,26.6,100,30.30,10.0,West,4.6,-,N/A,,Overcast,280,2013-03-09 01:50:00
9:10 PM,26.6,26.6,100,30.29,10.0,WNW,5.8,-,N/A,,Mostly Cloudy,290,2013-03-09 02:10:00
9:30 PM,24.8,24.8,100,30.28,10.0,WNW,5.8,-,N/A,,Clear,300,2013-03-09 02:30:00
9:50 PM,24.8,24.8,100,30.28,10.0,WNW,5.8,-,N/A,,Clear,300,2013-03-09 02:50:00
10:10 PM,24.8,24.8,100,30.28,10.0,NW,3.5,-,N/A,,Clear,310,2013-03-09 03:10:00
10:30 PM,24.8,24.8,100,30.27,10.0,NNW,3.5,-,N/A,,Clear,330,2013-03-09 03:30:00
10:50 PM,24.8,24.8,100,30.28,10.0,NW,4.6,-,N/A,,Clear,310,2013-03-09 03:50:00
11:10 PM,24.8,24.8,100,30.29,10.0,West,5.8,-,N/A,,Clear,280,2013-03-09 04:10:00
11:50 PM,24.8,24.8,100,30.28,10.0,WNW,5.8,-,N/A,,Clear,300,2013-03-09 04:50:00